Volver al catálogo

STARLINK-32766

ActivoComunicacionesVLEO
NORAD 62574·PAYLOAD·🇺🇸 United States

Lanzado Jan 10, 2025 desde Cape Canaveral Space Force Station

Loading…

Próximos Pases (próximas 24 horas)

TLE

ActualizadoSource: CelesTrak SupGP

Época: Sep 14, 2026, 22:45 UTC

1 62574C 25006W   26257.94840278  .00010729  00000+0  38862-3 0  2576
2 62574  43.0032 303.7235 0001920 268.1848 230.1582 15.27571433    10

Sigue STARLINK-32766 en tiempo real con AllMySat

Download on the App Store